This is the latest recevied weather packets stored in our database for station/object KA3RQR. If no packets are shown the sender has not sent any weather packets the latest 10 day(s).
| Time | Temp. | Humidity | Pressure | Rain* | Wind** | Luminosity | Snow |
|---|---|---|---|---|---|---|---|
| 1777773461 | 10.56° C | 55% | 1014.1 hPa | 0 mm | - | 0 W/m² | - |
| 1777773158 | 10.56° C | 56% | 1014 hPa | 0 mm | - | 0 W/m² | - |
| 1777772857 | 10.56° C | 56% | 1014 hPa | 0 mm | - | 0 W/m² | - |
| 1777772249 | 10.56° C | 57% | 1014 hPa | 0 mm | - | 0 W/m² | - |
| 1777771038 | 10.56° C | 56% | 1013.6 hPa | 0 mm | - | 0 W/m² | - |
| 1777769826 | 10.56° C | 56% | 1013.3 hPa | 0 mm | - | 0 W/m² | - |
| 1777768614 | 10.56° C | 57% | 1012.9 hPa | 0 mm | - | 0 W/m² | - |
| 1777768311 | 10.56° C | 57% | 1012.9 hPa | 0 mm | - | 0 W/m² | - |
| 1777768008 | 11.11° C | 55% | 1012.8 hPa | 0 mm | - | 0 W/m² | - |
| 1777767704 | 11.11° C | 54% | 1012.8 hPa | 0 mm | - | 0 W/m² | - |
| 1777767400 | 11.11° C | 55% | 1012.7 hPa | 0 mm | - | 0 W/m² | - |
| 1777767097 | 11.11° C | 55% | 1012.8 hPa | 0 mm | - | 0 W/m² | - |
| 1777766795 | 11.67° C | 53% | 1012.7 hPa | 0 mm | - | 0 W/m² | - |
| 1777764976 | 12.22° C | 50% | 1012.3 hPa | 0 mm | - | 30 W/m² | - |
| 1777764673 | 12.78° C | 50% | 1012.4 hPa | 0 mm | - | 32 W/m² | - |
| 1777761946 | 12.78° C | 47% | 1012.1 hPa | 0 mm | - | 28 W/m² | - |
| 1777761643 | 12.78° C | 48% | 1012.1 hPa | 0 mm | - | 33 W/m² | - |
| 1777761341 | 12.78° C | 49% | 1012.1 hPa | 0 mm | - | 39 W/m² | - |
| 1777761039 | 12.78° C | 47% | 1012.2 hPa | 0 mm | - | 39 W/m² | - |
| 1777760736 | 13.33° C | 47% | 1012.3 hPa | 0 mm | - | 41 W/m² | - |
| 1777760432 | 13.33° C | 47% | 1012.2 hPa | 0 mm | - | 50 W/m² | - |
| 1777760127 | 13.33° C | 47% | 1012 hPa | 0 mm | - | 51 W/m² | - |
| 1777759825 | 13.33° C | 48% | 1012.1 hPa | 0 mm | - | 58 W/m² | - |
| 1777759521 | 13.89° C | 46% | 1012.1 hPa | 0 mm | - | 67 W/m² | - |
| 1777758612 | 13.89° C | 46% | 1012.1 hPa | 0 mm | - | 113 W/m² | - |
* Rain latest hour (hover to see other rain measurements)
** Current wind speed in m/s (hover to see current wind gust speed)